Theta_e
345 345 345 344 344 343 340 337 335 334 334 334 334 334 334 334 335 337 339 340 341 340 340 339 338 339 339 340 342 342 341 342 342 342 343 342 341 340 339 338 336 337 337 333 330 333 335 337 337 337 338 339 339 339 341 340 340 340 338 339 340 338 338 336 333 333 333 335 339 339 339 339 339 340 340 339 339 339 339 339 340 339 339 340 340
345 345 345 345 344 344 344 343 341 339 337 336 336 336 336 336 338 341 342 342 342 343 342 342 341 340 340 340 342 343 342 342 342 342 342 343 343 341 339 338 337 336 338 336 330 329 333 336 336 336 337 338 337 339 340 340 340 340 338 338 340 340 338 335 332 332 333 335 338 337 337 337 337 337 336 335 336 338 340 339 339 339 339 340 340
345 345 345 345 345 345 345 345 344 343 342 340 339 339 339 340 341 342 342 341 341 343 343 342 342 341 340 339 340 342 343 342 341 342 342 343 343 343 340 339 338 336 337 338 334 329 330 334 336 337 336 336 336 338 340 340 340 340 339 338 339 341 339 335 333 334 334 335 336 336 336 336 337 335 330 326 329 336 340 339 339 338 339 339 340
345 346 345 346 346 345 345 345 344 344 345 344 343 342 342 343 343 343 342 341 340 342 343 342 342 342 342 340 340 340 342 342 341 341 342 343 343 343 341 340 339 338 336 337 337 333 329 329 333 336 337 336 336 338 339 340 340 340 340 338 338 340 340 337 336 336 336 337 337 337 338 338 338 337 329 320 324 335 339 339 338 337 337 338 339
346 346 346 346 346 345 345 345 345 345 345 345 345 344 343 344 345 345 343 342 341 342 344 343 342 342 343 342 342 340 340 342 342 340 341 342 343 343 343 341 340 339 337 337 338 337 332 329 330 333 335 335 336 337 339 339 339 340 340 338 338 339 340 339 338 338 339 339 339 339 339 339 339 339 335 325 322 331 338 339 338 338 338 339 340
346 346 346 346 345 345 345 345 345 345 346 346 346 345 344 344 344 345 344 343 342 343 345 344 343 343 343 343 343 342 340 340 342 341 340 342 343 343 343 342 342 341 338 336 337 338 337 333 330 330 330 332 332 333 336 337 337 339 339 338 337 338 340 340 339 339 339 340 340 340 340 340 340 340 340 335 328 329 332 333 334 335 336 337 337
346 346 346 347 346 345 345 345 346 346 346 347 346 346 346 345 345 345 345 344 343 344 345 345 344 343 343 343 344 344 341 340 341 341 340 342 342 342 342 342 343 343 341 339 337 337 338 337 333 331 328 327 328 329 332 334 336 337 337 338 338 337 339 340 341 339 339 339 339 340 339 340 341 341 341 340 338 335 333 332 330 330 329 328 328
347 347 348 347 346 346 345 346 346 347 347 347 347 347 347 347 346 345 345 345 345 345 345 346 345 343 343 343 344 344 342 340 341 340 339 341 341 340 341 342 343 343 343 342 340 337 337 338 337 335 331 327 325 325 327 330 334 336 334 335 337 336 337 338 339 339 339 339 340 340 340 339 340 340 340 341 341 340 340 339 336 335 332 330 328
348 348 348 347 346 346 346 346 347 347 347 347 347 347 347 347 346 346 346 346 346 346 346 346 345 344 343 343 344 344 342 341 341 340 339 341 341 340 341 342 343 343 343 343 342 339 337 337 338 338 336 332 327 324 325 326 329 332 332 330 332 332 332 332 332 333 334 336 337 338 339 340 340 340 340 341 341 341 341 341 341 341 340 338 336
349 349 349 348 348 347 347 347 347 347 347 347 348 348 348 348 346 346 346 347 347 346 346 346 345 344 343 343 343 343 343 342 342 340 340 342 341 340 341 342 342 342 342 342 342 341 338 337 337 338 338 336 333 328 324 324 325 328 328 327 327 327 327 327 327 328 328 329 330 331 334 337 339 340 341 341 340 341 341 341 341 342 342 341 341
351 350 349 349 349 349 348 348 348 348 347 348 348 348 348 348 346 346 347 347 347 346 346 346 345 344 343 343 343 344 344 343 342 340 341 342 340 339 341 341 342 341 342 342 342 342 340 338 337 337 338 338 337 334 329 325 324 324 326 326 325 326 326 326 326 326 326 326 327 327 328 330 332 336 338 339 339 340 341 340 340 340 341 341 342
351 349 348 349 348 348 348 348 348 349 348 349 349 348 348 347 346 346 346 346 347 346 346 346 345 344 343 343 343 343 344 343 341 340 341 342 340 339 340 341 342 342 342 342 342 343 342 341 339 338 337 337 337 337 335 331 327 324 324 325 325 325 326 326 327 326 326 326 327 328 328 328 328 329 332 333 334 336 338 339 338 339 341 341 341
351 350 350 350 349 349 349 348 349 350 349 350 349 348 347 347 346 346 346 346 346 346 346 345 345 345 343 343 343 343 344 343 341 340 341 342 340 339 341 342 342 342 342 342 343 343 344 343 342 340 338 337 337 337 337 336 333 329 325 324 324 325 325 325 327 327 328 329 329 329 332 334 333 330 330 330 329 330 333 335 335 337 339 341 341
348 350 351 352 351 350 350 349 350 350 349 349 349 348 347 347 347 347 346 347 346 346 346 345 346 345 343 344 344 343 344 344 342 340 341 341 339 340 342 342 342 342 343 344 344 344 345 345 345 344 343 340 338 337 336 336 336 335 331 327 324 324 324 325 325 326 328 332 334 333 334 335 336 335 335 336 333 330 329 331 332 333 335 338 338
347 347 349 350 350 350 350 349 350 349 349 348 348 347 348 347 347 347 347 347 347 346 345 345 346 345 344 345 345 344 344 344 342 340 341 340 340 341 343 343 343 342 343 344 345 345 345 345 346 346 345 343 341 339 337 336 336 336 336 333 330 326 324 324 324 325 326 329 333 334 334 334 335 335 338 340 340 337 333 330 331 332 333 334 335
347 348 348 349 349 349 349 349 350 349 348 348 347 348 348 348 348 348 347 348 348 347 346 345 345 345 346 346 346 346 345 343 342 341 341 340 340 342 342 343 343 343 344 345 346 345 345 345 346 346 346 345 343 341 339 337 336 336 336 336 335 332 327 325 323 323 324 324 326 328 330 330 331 332 335 338 341 342 340 334 331 332 333 333 334
347 348 348 348 347 347 348 349 349 349 348 348 348 348 348 348 348 348 348 348 348 347 346 345 344 344 345 346 346 346 346 343 343 343 341 341 342 342 342 343 344 344 344 346 346 346 345 345 345 346 347 347 346 344 342 340 339 338 337 336 336 335 331 328 325 324 323 323 323 324 324 325 328 330 333 336 339 342 342 341 337 335 334 335 335
348 347 347 347 348 347 347 348 348 348 348 348 347 347 348 348 348 348 348 348 348 347 346 345 344 344 345 346 346 346 345 344 344 343 342 342 343 343 342 343 344 344 345 345 346 346 346 345 345 346 346 347 347 346 345 344 342 341 340 338 337 336 334 331 329 328 327 327 328 328 328 329 331 333 335 337 339 340 341 342 342 339 338 338 338
349 348 348 348 348 347 347 348 348 348 348 348 347 347 348 348 348 348 348 348 348 347 346 345 344 344 346 346 346 345 346 346 345 344 343 342 343 343 344 344 344 344 345 345 346 346 346 346 346 346 346 346 347 347 347 346 345 345 343 341 338 336 336 334 332 331 331 332 332 333 334 335 335 336 336 337 338 339 340 342 342 341 341 341 340
349 349 349 349 348 347 348 348 349 349 349 348 347 347 348 348 348 348 348 348 348 347 346 345 345 345 346 346 345 346 347 348 347 346 345 344 343 343 343 343 343 343 344 345 346 346 346 346 346 346 346 347 347 347 348 347 347 346 346 344 341 338 336 335 335 334 334 334 335 335 336 337 337 337 337 337 337 338 339 340 340 340 340 340 341
349 347 348 349 348 348 348 348 349 349 348 348 347 347 348 348 348 348 347 347 348 347 345 345 345 346 346 346 345 346 347 348 348 348 347 346 344 344 344 344 344 344 344 345 346 346 346 346 346 346 346 346 346 347 347 348 348 347 347 347 346 343 340 337 336 336 337 337 337 337 337 337 337 337 337 336 337 337 337 338 338 338 339 339 339
348 347 346 348 349 349 348 348 349 349 348 348 347 347 347 348 347 348 348 348 347 346 345 345 346 346 346 346 345 345 346 347 347 348 348 347 346 345 346 346 346 345 345 345 345 346 346 346 346 346 346 346 346 347 347 348 348 348 348 348 347 347 345 343 341 340 339 339 339 339 339 339 338 337 336 336 336 336 336 337 337 338 338 338 338
346 346 345 347 349 349 348 348 348 348 348 348 348 348 348 348 348 347 348 348 347 346 345 345 346 346 346 346 345 344 345 347 347 347 347 347 347 346 346 347 347 347 346 346 346 346 346 346 346 346 346 346 346 346 347 347 348 348 348 348 348 348 348 347 347 345 344 342 342 342 342 341 340 337 336 336 335 335 335 336 336 337 337 337 338
344 343 342 343 345 345 346 346 348 348 347 348 348 348 348 348 348 348 348 348 347 346 346 346 346 345 345 346 345 344 345 346 346 347 347 347 347 346 346 347 347 347 346 347 346 346 345 345 346 346 345 346 346 346 347 347 347 347 347 348 348 348 348 348 349 348 347 344 343 343 342 342 341 339 338 337 336 336 336 336 336 336 337 337 337
342 341 340 340 341 341 341 342 345 346 347 347 347 347 348 348 347 348 348 348 347 347 346 346 346 345 346 345 345 345 345 345 346 347 347 347 347 347 347 347 347 347 347 346 346 345 345 344 345 346 346 346 346 346 346 347 346 346 346 347 348 348 349 349 349 349 348 346 344 343 343 343 342 341 340 338 338 338 337 337 337 337 337 337 338
341 340 340 341 340 341 342 342 343 344 346 346 347 347 347 348 348 347 348 348 347 347 347 346 346 345 346 345 345 345 345 346 347 347 347 347 347 347 347 347 347 347 347 346 346 345 345 345 345 345 346 346 346 346 346 346 346 346 346 347 347 348 348 348 348 349 349 348 346 345 345 344 343 342 340 338 337 337 338 338 337 337 337 337 338
342 342 342 342 340 340 342 343 344 345 346 346 347 348 347 347 348 347 347 348 347 347 347 346 346 346 346 345 345 345 346 347 347 348 347 347 348 348 348 348 348 348 347 347 347 346 345 346 346 346 346 346 346 346 346 346 345 346 346 346 347 347 348 348 348 349 349 349 348 347 347 346 344 342 340 338 337 336 336 336 337 337 337 337 337
344 344 343 343 341 341 341 342 345 346 346 345 346 347 347 347 347 347 348 347 346 347 347 347 346 346 345 345 345 346 346 347 348 348 347 347 348 348 348 348 348 348 348 347 346 346 345 346 346 346 346 345 345 346 346 345 345 346 346 346 346 347 347 348 348 348 348 349 349 348 347 346 344 342 341 340 339 337 335 334 334 334 335 336 337
344 344 344 344 343 342 342 342 344 345 345 345 345 346 347 348 347 347 347 347 347 346 346 346 347 346 346 345 345 346 346 347 348 347 348 348 348 348 347 347 347 348 348 347 346 346 346 346 346 345 346 346 346 346 346 346 345 345 346 346 346 347 347 347 347 348 348 348 348 346 346 345 345 344 344 343 341 339 337 334 332 332 333 333 334
344 345 345 345 344 344 343 342 343 343 344 345 344 344 346 346 346 346 346 346 346 346 345 346 347 347 347 347 346 346 346 347 347 347 347 348 347 347 346 346 347 347 347 347 346 346 347 346 346 346 346 347 346 346 346 346 346 345 346 346 346 346 346 347 347 347 348 348 348 347 348 348 348 347 346 344 342 340 337 335 333 333 332 332 332
345 344 344 344 344 344 344 343 343 343 343 344 343 343 343 345 346 346 347 346 345 345 345 345 346 347 347 347 346 346 346 347 347 347 347 347 347 347 346 347 347 347 347 347 347 347 346 346 346 346 347 347 347 347 347 347 347 347 346 346 346 346 346 346 347 347 348 348 348 348 349 349 349 348 348 346 342 340 337 335 334 334 334 333 332
344 343 343 343 344 344 344 344 344 344 343 343 343 343 344 344 345 347 348 347 345 344 344 344 345 346 347 347 347 346 346 346 347 347 347 347 347 346 346 347 347 347 348 348 348 347 346 346 346 346 346 347 347 347 347 347 347 347 347 346 346 346 346 346 346 347 348 348 348 348 349 349 349 349 348 346 343 340 338 337 336 335 335 335 334
343 342 342 344 344 345 345 344 344 344 344 344 343 343 344 344 345 346 349 350 348 345 344 344 344 345 346 347 347 346 346 346 346 347 347 347 346 346 347 347 347 348 348 349 348 347 346 346 346 346 346 347 348 348 347 346 346 346 346 346 346 346 346 346 346 347 347 348 348 348 348 348 348 348 346 345 344 343 342 342 341 340 338 337 335
343 343 343 345 345 345 345 345 345 345 345 345 344 343 343 344 344 346 347 348 349 347 346 344 344 344 346 347 347 347 347 347 346 346 346 346 346 346 346 346 347 347 348 349 349 347 346 345 345 346 346 347 347 347 347 346 346 346 346 346 346 346 346 346 347 347 347 348 348 348 348 348 348 348 346 346 346 347 347 346 346 345 344 341 339
343 343 344 346 346 345 346 346 345 344 344 344 344 343 343 343 344 345 345 346 347 348 348 346 345 345 345 346 347 347 348 347 347 347 346 347 346 346 346 346 347 347 347 348 349 348 347 346 345 345 346 347 346 346 346 346 346 347 347 346 346 346 347 346 347 347 347 348 348 348 349 349 349 348 347 347 347 348 348 348 348 347 347 345 342
341 342 344 345 345 345 345 346 345 344 344 343 343 343 343 344 344 345 345 345 345 346 347 347 347 346 345 345 346 346 347 347 347 347 347 347 346 346 345 346 346 347 347 348 348 348 347 346 346 346 347 347 346 345 345 346 346 347 347 347 347 346 347 347 347 347 347 348 348 348 349 349 349 349 349 348 348 347 347 347 347 347 347 347 345
337 340 342 343 344 344 345 345 345 344 344 343 342 343 343 344 344 344 345 345 345 346 347 347 347 347 346 345 345 345 346 346 346 347 347 347 346 346 345 346 346 346 347 348 348 348 347 347 346 347 347 346 346 345 345 346 347 347 347 347 347 346 346 347 347 347 347 347 347 348 348 348 348 348 349 349 349 348 347 346 347 347 347 347 347
330 334 339 341 342 343 344 345 345 344 344 344 343 343 343 343 344 345 344 344 345 345 346 346 347 347 347 347 345 344 344 345 345 346 347 347 347 346 345 345 346 346 347 348 348 348 347 347 347 347 347 347 347 346 345 346 346 346 346 347 347 347 347 346 346 346 346 347 347 347 347 347 347 347 348 348 349 349 348 347 347 347 347 347 348
324 326 332 338 340 341 342 344 344 345 345 345 344 344 343 343 344 345 345 345 345 345 346 346 346 347 347 347 346 345 345 345 346 347 347 347 348 347 345 345 345 346 346 347 348 347 347 347 346 346 346 346 347 347 346 345 345 345 345 346 347 347 347 347 346 346 346 346 346 347 347 347 348 347 348 348 348 349 349 348 348 348 348 348 348
323 323 327 332 337 339 340 341 342 343 344 345 345 344 344 344 343 344 345 346 346 346 346 346 346 346 346 346 346 346 346 346 346 347 347 347 347 347 346 346 345 346 346 346 346 347 347 346 345 345 345 346 348 347 347 346 345 344 344 344 345 346 347 347 346 346 346 347 347 347 347 347 347 348 348 348 348 347 348 349 349 349 349 349 348
323 323 324 328 334 337 339 339 340 341 342 342 343 344 345 345 344 344 344 344 345 346 346 346 346 346 346 346 345 345 346 346 346 347 347 346 346 347 347 347 347 347 347 346 347 346 346 345 345 344 346 347 348 348 347 347 346 345 344 344 344 344 345 346 347 346 346 346 347 347 347 348 348 348 348 349 348 348 347 348 348 348 348 348 348
324 324 324 324 329 334 337 338 339 339 341 341 341 342 343 345 345 345 344 344 344 344 345 345 345 346 346 346 346 345 346 346 346 346 345 345 345 345 346 347 347 347 347 348 348 347 347 346 345 345 347 348 348 347 347 347 346 346 346 345 344 343 344 345 346 346 346 346 346 346 346 346 348 349 349 349 349 348 348 348 348 348 348 348 348
324 325 324 324 325 329 334 336 336 337 339 341 342 342 342 344 345 346 346 345 345 344 344 344 344 344 344 344 345 345 345 345 346 345 345 345 345 345 345 347 347 347 348 348 348 348 348 348 347 348 348 348 347 347 347 346 346 346 346 346 345 344 342 343 345 345 346 345 345 344 343 344 345 346 347 348 348 349 349 349 348 348 348 348 347
325 325 325 325 324 325 329 332 334 335 337 339 342 343 343 344 345 345 346 346 345 344 344 344 344 344 344 343 343 343 344 345 345 345 345 345 344 344 344 345 346 347 348 348 348 349 349 349 349 349 348 347 347 346 345 345 345 346 346 346 346 345 343 342 344 345 346 345 345 344 343 343 343 344 345 346 347 347 347 347 347 346 346 345 344
326 325 326 326 325 325 326 328 330 333 335 337 338 340 342 343 344 345 346 346 346 345 344 344 344 344 344 344 344 343 342 342 344 345 345 345 344 343 343 343 345 346 347 347 347 348 348 348 349 349 348 347 347 346 345 346 346 346 346 345 345 345 344 343 343 344 345 345 345 345 345 344 344 343 343 343 343 344 344 344 344 343 343 342 342
327 327 326 326 326 326 325 325 326 329 332 335 336 337 339 341 342 343 344 345 346 346 346 345 344 344 344 344 345 345 344 343 343 344 344 345 346 346 345 344 344 345 345 346 347 347 347 347 348 348 348 347 347 346 345 346 346 346 345 344 344 344 344 343 344 345 346 347 347 348 348 346 345 344 343 342 342 343 343 343 342 342 342 342 341
327 327 327 326 326 326 327 326 326 326 328 331 333 334 336 338 339 340 341 343 344 345 346 345 345 344 344 344 345 345 346 345 344 343 344 345 346 346 346 346 345 344 345 345 346 346 346 347 347 347 347 347 347 346 346 346 346 345 344 343 344 345 346 346 346 347 348 348 349 349 348 346 345 345 344 343 343 344 343 343 343 342 342 341 340
325 326 326 326 326 327 327 327 327 327 326 327 329 331 333 335 336 337 338 339 341 343 344 345 345 345 345 345 345 345 346 345 344 344 344 345 346 346 346 346 345 345 345 344 345 346 346 346 346 346 345 345 345 345 346 345 344 344 343 344 344 346 347 347 348 348 348 348 348 348 348 346 345 345 345 345 345 344 343 342 342 341 341 340 340
325 325 325 326 326 326 327 327 328 328 327 327 327 328 330 333 334 335 335 337 338 339 341 343 344 345 345 345 345 344 344 344 344 344 344 346 346 346 345 345 345 345 345 344 343 344 345 345 345 345 344 344 344 344 344 343 343 343 345 345 345 345 346 346 347 348 348 347 347 347 347 347 346 346 346 345 344 343 342 341 340 340 340 340 339
326 326 325 325 325 326 327 327 328 328 328 328 329 329 329 331 333 333 334 335 336 336 338 339 340 342 343 344 344 344 344 343 343 344 345 346 346 346 345 345 345 345 345 343 343 343 344 345 346 345 345 345 345 345 345 343 344 345 346 347 346 346 346 345 345 346 346 346 345 346 347 347 346 346 345 345 344 342 341 340 340 340 340 339 337
326 326 326 326 325 325 326 327 329 329 328 329 330 331 331 331 332 333 334 334 334 335 335 336 337 338 340 342 343 344 345 344 345 345 346 346 346 345 345 346 346 345 344 343 343 343 344 345 346 346 346 346 346 347 347 347 347 348 348 348 347 347 347 347 346 346 346 346 345 346 347 347 347 346 345 345 345 343 341 340 340 339 337 336 334
Wind_Speed
24 24 23 23 23 23 23 24 25 25 24 23 23 22 22 21 20 18 17 16 16 14 14 14 13 12 10 7 6 6 6 7 7 7 6 4 3 3 3 2 1 2 2 2 1 2 3 3 3 3 3 2 2 0 1 1 1 0 2 3 4 5 5 4 4 6 9 10 9 8 8 8 7 7 8 8 8 7 8 8 9 10 10 10 10
26 25 24 24 24 24 24 24 25 25 25 25 24 23 23 22 20 18 16 16 14 12 12 12 11 11 10 7 5 6 7 8 8 9 8 6 5 5 4 3 2 2 2 1 1 2 3 3 3 3 3 3 2 1 0 1 1 1 3 3 4 6 5 3 3 6 9 10 8 7 7 7 6 6 7 9 9 9 8 8 9 9 10 10 9
26 25 25 25 25 26 26 26 26 26 26 26 25 24 24 22 20 18 17 16 15 14 14 13 12 12 11 8 5 6 7 8 9 10 10 8 7 6 6 4 4 3 3 2 1 1 2 3 3 3 3 3 3 2 1 1 1 1 3 2 4 5 5 4 5 7 9 9 7 7 6 6 5 4 5 8 9 9 9 8 8 9 9 9 9
27 26 26 26 27 27 27 27 27 27 27 27 27 26 25 24 22 19 18 17 16 16 15 15 14 13 11 10 9 8 7 9 10 10 11 10 8 8 7 6 5 4 4 4 2 2 1 2 3 3 4 3 3 3 1 0 1 1 2 2 3 5 5 5 5 6 7 7 7 6 6 6 4 2 2 4 8 9 8 7 8 8 8 8 8
28 27 27 27 27 27 27 27 28 28 28 29 29 27 26 26 24 21 19 18 18 17 16 16 15 15 13 12 11 11 10 11 11 12 12 11 11 10 9 7 6 5 5 5 4 3 2 1 2 3 4 4 4 4 3 2 2 1 1 2 3 5 6 5 5 5 6 6 6 6 6 5 4 2 1 2 6 7 7 7 7 7 8 8 8
28 27 27 27 27 27 27 26 27 28 29 30 30 27 26 26 25 22 18 18 19 17 17 16 16 16 15 13 13 13 13 14 13 13 14 13 13 12 10 9 7 6 6 6 5 4 3 2 2 2 3 3 3 4 5 4 3 3 2 2 3 5 6 6 5 5 6 6 6 6 6 5 5 4 2 2 4 5 6 6 7 8 8 9 9
26 26 27 27 27 27 27 26 26 28 29 30 29 28 26 25 25 23 19 18 19 18 17 17 17 17 16 14 14 13 15 16 14 14 15 14 14 13 12 10 8 7 7 7 6 6 5 3 2 2 2 2 3 4 4 4 5 5 4 4 4 5 6 6 6 6 6 6 6 6 6 6 6 5 5 4 4 4 5 5 6 6 7 8 8
25 25 26 27 28 28 27 27 26 27 29 28 28 29 27 25 24 23 20 19 19 19 18 18 17 16 16 15 14 14 15 16 15 14 15 16 15 14 13 12 10 8 8 8 7 7 7 6 4 3 2 2 2 3 3 4 5 6 6 6 6 6 6 7 6 6 6 6 6 6 6 6 6 6 6 6 5 5 5 5 5 5 5 5 5
23 24 25 25 27 28 27 26 26 26 27 26 26 27 24 22 22 21 20 20 19 20 20 18 16 16 17 16 14 14 15 16 15 14 16 17 16 15 14 12 10 9 8 8 8 8 8 8 6 5 3 3 3 3 4 3 3 5 6 6 6 6 7 7 7 6 6 5 5 5 6 6 6 6 6 7 6 6 6 6 6 5 5 4 5
23 24 24 24 24 25 24 25 24 23 24 23 22 22 20 19 20 20 19 20 20 20 20 18 16 16 17 16 15 14 16 16 15 15 16 18 18 16 15 13 10 8 8 9 9 9 9 10 9 8 6 4 4 3 4 4 3 4 5 6 7 7 7 8 7 7 6 5 5 5 5 5 6 6 6 7 7 7 7 7 7 7 6 6 5
24 24 24 23 22 22 22 23 21 17 19 20 19 18 18 16 16 17 18 19 20 20 20 18 17 17 17 16 15 16 16 16 16 16 17 18 18 17 15 13 11 9 8 9 9 10 10 11 11 10 8 6 5 4 4 5 5 5 5 6 7 7 8 8 8 7 7 6 5 5 4 5 5 5 6 6 6 7 7 8 8 8 8 7 7
22 23 23 22 20 19 19 18 17 15 16 17 17 16 15 15 15 15 16 18 18 19 19 18 17 17 17 17 16 17 17 17 17 17 18 18 18 16 14 12 10 9 9 10 10 10 10 10 11 10 10 9 7 6 5 5 6 6 7 6 7 8 8 8 8 8 7 7 6 5 5 4 4 5 5 5 6 6 7 7 7 8 8 8 8
21 23 24 23 20 17 16 15 14 16 17 17 16 15 14 15 15 15 16 17 17 17 16 15 16 17 17 17 17 18 17 18 19 18 18 18 17 15 12 11 10 10 10 11 11 10 9 9 10 10 10 10 10 9 8 7 6 7 8 8 9 8 9 9 9 9 8 8 7 6 5 4 4 5 5 5 6 6 6 6 6 7 8 9 10
18 20 22 23 22 18 16 14 13 16 18 16 15 14 15 15 15 16 16 17 17 16 15 14 15 16 16 16 16 17 17 18 19 19 19 18 16 14 11 10 10 10 11 11 11 10 9 8 9 9 9 10 11 11 10 9 8 7 7 8 9 10 10 10 10 10 9 9 8 7 6 6 6 6 6 6 6 6 6 6 6 7 8 9 9
16 17 17 19 21 19 17 15 14 15 15 15 15 14 15 15 16 16 16 17 17 16 16 15 15 15 14 13 12 12 15 18 19 19 19 19 17 14 12 10 10 11 12 11 10 10 9 8 8 8 8 9 10 11 11 11 10 9 8 8 9 10 11 12 11 11 11 10 10 9 9 8 8 8 8 9 8 7 7 7 7 7 8 8 8
16 17 16 17 18 17 15 15 14 14 14 14 15 15 16 17 16 16 16 17 18 17 16 16 16 16 13 12 11 9 10 15 18 19 20 19 17 15 13 12 11 11 12 11 9 9 9 9 9 8 8 8 8 10 10 10 10 11 11 10 10 9 10 12 12 13 13 12 11 11 10 10 9 8 10 10 10 9 8 8 8 8 8 8 8
13 15 15 16 17 15 12 12 13 13 13 13 13 15 17 18 17 17 17 18 18 17 16 16 17 18 15 12 10 8 8 9 14 18 20 20 17 15 15 13 12 12 12 11 10 9 9 9 10 10 9 8 8 9 9 9 10 11 12 12 11 10 10 10 11 12 12 12 12 11 11 10 9 8 9 10 11 11 10 10 9 9 8 8 9
11 12 13 14 16 16 12 10 11 13 13 12 12 13 16 17 17 17 16 17 18 17 16 16 17 19 19 15 11 8 7 7 8 13 17 20 17 15 15 14 13 12 12 12 11 10 10 10 10 10 10 10 9 9 9 9 10 10 10 11 11 11 11 10 10 10 10 11 10 10 10 10 9 9 8 9 11 11 12 12 12 11 10 9 9
11 11 12 12 14 15 13 11 12 13 13 12 13 13 14 15 15 17 17 17 18 18 17 17 19 20 20 18 15 10 7 7 6 7 11 15 16 15 15 15 14 13 13 13 13 12 11 11 11 11 11 11 10 10 10 10 10 9 9 9 11 12 12 12 12 11 11 11 11 11 11 11 11 11 11 11 11 11 12 13 13 12 12 12 11
10 10 11 12 12 14 13 12 13 14 14 14 14 13 13 13 14 15 16 17 18 19 18 19 20 21 20 19 18 14 10 9 8 7 7 9 12 13 14 14 15 15 15 14 14 13 13 12 12 12 12 11 12 12 12 11 11 11 9 9 10 11 12 13 13 13 13 13 13 12 12 12 13 13 12 12 12 12 12 12 13 13 13 13 13
8 9 10 10 10 12 13 14 14 14 15 14 14 14 14 14 14 16 17 17 18 19 19 20 21 21 20 20 20 18 15 12 11 10 10 10 10 10 10 12 14 16 16 16 15 14 14 14 13 13 13 12 12 12 13 13 13 12 11 10 9 10 11 12 13 13 14 14 14 14 13 13 13 13 13 13 12 12 12 12 13 14 14 14 14
7 9 10 10 9 11 13 14 15 14 15 15 15 15 15 15 15 15 16 17 18 19 20 21 21 21 21 21 22 22 19 16 14 12 12 11 11 10 9 10 13 14 14 16 16 15 15 14 14 14 13 13 12 12 14 14 14 13 12 10 10 10 10 11 12 13 13 14 14 15 14 14 13 13 13 13 12 12 12 13 13 14 15 15 15
6 8 10 10 10 11 12 13 14 14 15 16 17 16 15 15 15 15 16 17 19 20 21 21 22 22 22 22 23 24 22 19 16 14 12 12 12 12 10 10 12 13 13 14 15 16 17 17 16 14 13 13 12 12 13 14 14 13 12 11 11 11 10 10 10 11 12 13 14 14 15 14 14 13 13 13 13 13 13 14 14 15 15 16 16
6 8 9 10 11 11 12 12 13 14 15 16 17 17 16 15 15 16 18 18 19 21 22 22 23 24 24 24 23 24 24 21 17 15 13 13 13 13 12 10 12 13 13 13 15 17 18 18 17 15 14 14 13 13 13 13 13 12 12 12 12 12 12 11 11 11 12 13 14 14 14 14 14 14 14 14 14 15 15 15 16 16 16 16 16
8 9 9 10 12 13 13 14 14 15 15 16 17 18 16 15 15 16 18 19 20 22 22 22 23 24 25 24 24 24 24 21 18 16 15 14 14 15 13 12 14 14 14 14 15 16 17 18 18 17 16 16 15 14 13 12 12 12 12 12 12 12 13 13 13 12 12 13 13 14 14 14 14 14 15 15 15 16 16 17 17 17 17 16 16
10 11 12 12 13 14 14 14 15 15 15 16 17 19 17 15 16 17 18 19 19 21 22 22 23 24 24 24 25 25 24 21 19 18 17 15 14 15 14 13 15 16 15 14 14 15 15 16 17 17 18 18 17 17 16 14 13 11 11 11 12 13 13 13 13 13 13 13 13 13 14 14 14 14 14 15 16 16 17 17 17 18 18 17 17
10 11 13 14 13 13 13 13 14 14 16 16 18 20 18 16 16 17 18 19 20 21 21 22 24 25 24 24 26 26 25 22 20 19 18 16 15 15 15 15 16 16 16 15 15 15 15 15 16 16 17 16 17 17 17 16 15 13 12 12 12 13 14 14 14 13 13 13 13 13 14 14 13 13 13 14 15 15 16 16 17 17 18 18 18
10 11 12 13 13 14 13 13 13 14 15 16 17 19 18 16 16 16 17 18 19 20 21 22 23 24 24 24 26 27 26 23 21 20 20 18 16 16 16 17 16 16 16 16 17 16 15 15 15 15 15 14 15 16 16 17 17 15 14 13 13 14 15 14 14 14 13 13 13 13 14 14 13 13 13 13 14 15 15 16 16 17 17 18 18
11 11 11 11 11 12 13 13 13 13 14 15 15 16 16 16 15 12 14 17 18 19 21 22 22 23 24 25 27 28 27 25 24 22 21 20 18 17 18 17 17 16 16 17 18 17 14 13 14 14 13 12 13 14 14 15 15 15 15 14 13 15 16 15 14 14 14 13 12 12 12 12 12 12 12 13 14 14 15 15 16 16 16 16 17
12 11 10 9 9 10 11 12 12 12 13 14 14 14 14 15 14 11 13 16 17 18 20 21 21 22 24 26 27 29 28 27 26 24 23 22 20 19 18 18 17 17 17 18 20 18 15 13 13 13 12 10 11 11 12 11 11 13 14 14 14 15 16 15 15 14 14 14 13 12 12 12 12 12 12 13 13 14 15 15 15 15 15 16 16
12 11 10 9 9 8 9 11 11 11 12 12 13 12 12 13 14 13 13 15 17 19 20 22 23 23 24 26 28 29 29 29 28 27 25 24 23 21 19 18 17 17 16 17 20 20 17 15 13 12 11 10 9 9 10 10 10 12 14 16 16 15 16 16 15 15 15 15 15 14 13 13 13 13 13 13 13 14 15 15 15 16 15 16 16
12 11 10 9 8 8 9 10 11 11 12 12 12 11 10 10 13 14 13 14 18 21 22 23 24 24 25 26 28 30 30 30 30 29 27 26 25 23 21 19 18 17 16 17 20 22 19 16 14 12 11 12 11 10 10 10 10 11 14 16 17 17 17 17 17 16 16 16 16 15 14 14 14 14 14 14 13 13 14 14 14 15 16 16 16
15 13 12 11 10 9 9 10 10 10 11 12 12 12 10 10 11 14 14 15 17 21 23 24 25 25 26 27 28 29 29 30 31 31 30 29 27 26 24 22 21 20 19 19 21 23 21 17 15 14 13 14 14 12 11 10 9 10 12 13 15 17 18 18 17 17 17 17 16 15 15 15 14 14 14 13 13 12 12 12 13 14 15 16 16
16 15 14 12 11 10 10 10 10 10 11 11 11 12 12 10 10 13 15 16 18 19 21 24 26 26 27 27 28 28 29 30 31 31 31 30 30 30 28 26 24 23 22 21 22 23 22 18 14 13 14 15 16 15 13 12 10 10 11 12 14 16 17 18 18 17 17 17 17 16 16 15 15 15 14 13 13 12 13 13 13 13 14 15 16
15 15 14 13 12 12 11 11 10 11 11 11 11 12 12 11 11 12 13 16 19 20 20 22 25 26 27 28 28 28 28 30 31 31 31 30 31 32 31 29 27 25 23 24 24 23 23 20 16 15 14 15 18 18 16 14 13 12 12 12 13 15 16 17 18 18 18 18 18 18 17 17 17 17 16 15 15 14 15 15 15 15 15 15 16
15 15 14 14 14 14 13 12 11 11 12 12 11 12 12 12 13 12 12 14 17 19 21 22 23 25 27 29 29 28 28 30 31 31 32 31 31 32 33 32 30 28 26 26 25 24 25 24 20 17 15 15 17 19 19 17 17 16 14 13 13 15 16 17 18 18 18 18 18 18 18 17 17 18 19 18 17 16 16 17 17 17 16 16 16
16 16 15 15 15 15 15 14 13 13 12 12 12 12 13 13 14 13 13 14 15 17 19 20 22 24 27 29 30 30 29 30 31 32 33 33 32 31 33 33 32 31 29 28 27 27 27 27 23 19 17 15 16 19 21 20 18 17 16 15 14 15 15 17 18 18 18 18 18 18 18 17 17 19 21 21 21 19 18 18 18 18 18 17 17
17 17 16 16 15 16 16 15 14 14 14 13 12 13 14 14 15 15 15 15 16 17 18 19 20 21 24 27 29 30 30 31 31 32 33 33 33 33 33 33 33 32 31 29 29 28 29 29 26 22 20 17 17 19 21 21 19 18 18 18 17 17 16 16 17 18 18 18 18 18 18 17 17 17 19 20 22 22 21 20 19 19 19 19 19
18 18 18 17 16 16 15 15 15 15 15 15 14 14 14 15 16 16 16 16 17 17 18 19 19 20 21 24 27 29 30 31 31 31 32 32 33 33 33 33 33 33 32 31 30 30 29 29 29 26 24 21 19 21 21 20 21 21 20 20 21 20 19 18 17 17 17 19 19 19 19 18 17 17 16 18 20 21 22 22 22 21 21 21 21
18 18 18 18 18 16 16 15 15 15 15 16 15 15 15 16 16 17 18 18 18 18 19 19 19 20 21 23 26 29 30 31 31 30 30 31 32 34 34 33 33 33 32 31 31 32 32 32 31 29 27 23 23 25 25 23 23 23 22 22 23 22 21 21 19 17 17 18 19 19 20 19 19 18 18 18 18 20 21 22 22 23 23 23 23
18 18 18 19 19 18 17 16 15 15 15 15 16 16 16 16 17 17 17 18 20 20 21 21 20 20 20 22 25 28 30 31 31 30 29 28 30 32 34 34 35 34 33 31 31 33 34 34 34 31 28 26 27 28 29 27 26 25 23 23 23 23 22 22 22 20 18 18 19 19 20 20 20 20 20 20 20 19 20 21 22 23 24 25 25
19 19 18 19 19 19 18 17 16 15 15 15 16 16 15 16 17 17 18 19 20 21 22 22 22 21 21 22 24 27 29 31 30 30 30 30 31 31 32 34 36 36 35 33 33 33 34 34 34 32 30 30 32 33 32 31 30 28 27 26 26 25 23 24 25 23 21 20 20 20 20 20 21 21 21 22 21 20 20 21 21 22 23 24 25
21 20 19 19 19 20 19 18 17 16 15 14 14 15 16 16 16 17 19 19 20 21 22 22 23 24 23 23 23 24 27 30 31 31 32 32 31 30 30 31 33 35 35 35 34 34 34 33 33 32 32 35 37 36 35 34 32 32 32 31 29 28 26 26 26 25 24 22 22 22 21 20 20 22 23 23 22 22 22 22 22 22 23 23 24
21 22 21 20 20 20 21 19 18 17 16 14 13 14 15 15 15 16 18 19 20 20 21 22 23 24 25 25 24 23 24 27 29 31 32 32 31 31 30 30 31 32 32 33 34 35 35 35 35 35 37 39 39 38 37 35 34 33 32 32 31 30 29 29 29 28 26 24 23 23 24 22 21 23 24 24 24 23 24 24 23 23 24 24 24
20 21 22 22 21 21 22 21 20 18 17 16 14 13 14 14 15 15 17 18 19 20 21 21 22 24 25 26 25 25 25 26 27 28 31 32 32 32 33 32 32 31 31 32 34 35 37 38 38 39 40 39 39 38 36 34 33 32 32 32 31 31 31 32 31 29 27 25 25 25 26 25 23 24 25 25 25 25 25 25 24 25 26 27 28
20 21 22 23 22 22 22 23 21 20 18 17 15 14 14 13 14 15 16 17 19 20 20 21 22 24 25 26 25 25 26 27 28 29 30 31 31 31 32 33 33 33 33 33 34 35 36 38 40 41 41 40 39 38 36 34 33 32 32 32 31 30 31 32 31 29 28 27 27 26 27 28 26 26 28 27 26 27 27 27 27 28 29 30 31
22 21 22 23 24 23 23 23 23 22 20 18 17 16 15 14 14 16 16 17 19 20 21 21 21 22 24 25 26 25 25 27 28 29 30 30 30 29 31 33 34 34 35 35 35 35 36 37 38 39 39 38 37 37 36 35 34 34 33 31 29 29 29 30 30 30 30 30 28 27 29 31 29 29 30 29 29 30 30 30 30 30 30 31 31
22 22 22 22 23 24 25 24 24 23 22 20 19 18 17 16 16 17 18 18 19 20 21 21 21 22 22 24 25 26 27 29 29 29 29 28 27 28 30 33 34 35 35 35 35 36 35 34 34 35 35 35 35 35 34 33 34 34 32 31 30 29 28 29 30 31 32 32 31 29 30 31 31 31 33 32 32 33 33 32 31 30 30 30 30
23 22 22 22 23 24 25 25 24 24 23 21 20 19 19 17 17 18 19 20 20 21 21 21 21 22 22 23 24 25 27 28 29 29 29 27 27 29 31 33 34 34 35 35 35 36 35 34 33 34 34 34 34 34 34 33 33 32 31 32 33 32 31 32 32 32 33 33 33 31 31 33 32 33 34 34 33 34 34 32 32 30 30 30 30
23 23 23 23 23 24 25 26 25 24 24 23 21 20 19 19 19 19 20 21 21 22 22 22 22 22 22 22 23 24 25 26 26 25 25 24 26 30 32 32 33 34 35 35 35 35 34 34 34 34 34 34 34 34 33 33 32 31 31 33 34 34 35 36 36 36 35 36 36 34 34 35 34 32 33 34 33 34 33 32 31 30 29 29 29
23 23 23 23 23 24 24 25 25 25 25 25 23 20 19 18 19 20 21 22 23 23 23 23 23 23 23 23 23 23 24 24 23 22 22 22 26 29 29 29 31 34 36 35 34 34 33 33 33 33 33 35 35 34 33 31 30 30 31 31 32 32 33 35 36 36 37 39 39 35 34 35 33 30 29 29 30 32 32 31 31 30 30 30 30
Wind_Direction
254 253 253 253 255 254 253 253 253 253 252 251 252 253 254 256 257 261 267 272 274 276 277 278 275 265 259 256 241 231 232 244 257 263 261 246 223 225 234 243 254 279 308 330 266 210 194 192 194 191 194 208 230 262 25 47 86 104 102 140 177 172 179 195 191 193 188 185 183 183 187 192 200 202 206 212 209 210 213 215 217 219 221 222 225
256 255 255 256 256 256 256 256 255 255 254 253 253 254 256 257 257 260 267 270 270 270 271 274 266 253 253 254 242 236 235 241 254 258 251 242 234 228 227 231 231 245 267 294 271 219 204 193 197 197 194 202 214 220 208 89 111 105 84 131 179 166 168 176 159 166 175 182 184 184 188 188 197 210 218 220 215 212 214 216 217 217 218 218 222
259 257 257 258 258 259 259 259 258 257 256 256 255 254 256 257 256 259 265 266 267 266 265 267 258 247 246 248 247 244 239 238 247 251 243 238 234 227 225 224 223 229 239 255 242 211 207 195 197 206 202 200 201 212 236 98 101 100 84 116 174 165 161 155 145 148 161 174 179 178 181 181 188 207 223 221 210 206 213 219 218 217 218 216 219
262 261 261 260 260 260 260 260 261 260 258 257 255 253 253 254 254 256 260 264 266 265 264 261 253 246 244 249 254 250 241 233 238 246 242 235 229 226 227 223 225 231 231 239 240 208 193 189 195 212 212 203 198 198 223 190 137 141 86 105 168 172 171 167 157 156 161 169 174 177 182 184 190 195 206 204 197 198 209 218 218 218 220 221 225
261 262 262 262 262 261 261 261 263 262 260 259 256 253 253 252 250 251 255 261 266 266 265 260 251 247 246 254 260 255 245 232 231 242 241 232 226 226 228 225 228 237 234 234 240 226 193 168 177 207 215 210 205 199 201 212 202 186 116 112 166 176 179 179 180 181 180 182 184 187 191 191 194 194 152 159 182 193 206 215 218 220 222 225 232
259 261 262 263 263 262 262 264 265 265 264 263 261 258 257 257 255 252 253 259 264 265 267 262 254 252 250 256 263 258 249 237 230 238 240 230 224 226 226 226 228 234 237 234 239 238 220 188 160 181 209 213 213 206 201 203 204 195 183 170 173 181 184 183 192 200 199 201 203 202 203 202 202 200 193 161 165 185 199 209 219 224 228 232 236
258 260 261 262 262 261 262 264 267 269 269 270 270 267 264 261 260 259 256 257 261 262 264 263 260 258 255 259 262 258 248 238 231 235 237 228 221 223 226 227 229 234 241 240 240 242 239 226 191 173 187 208 217 213 208 207 205 198 194 192 182 184 188 187 192 202 204 206 209 212 212 211 212 210 210 201 182 182 191 198 206 213 221 227 230
258 258 259 261 261 259 260 264 268 270 271 271 273 273 268 263 262 264 262 259 260 262 263 264 264 262 260 261 260 254 244 235 229 231 233 227 219 219 224 229 231 238 247 247 245 242 242 238 225 203 186 196 215 219 218 217 215 206 196 190 186 184 184 184 187 192 197 198 203 209 211 213 216 218 218 214 208 204 202 203 202 200 203 207 210
260 259 258 259 261 260 260 263 265 267 270 271 274 276 273 267 262 260 260 260 261 263 265 266 267 266 264 261 256 248 237 230 225 226 228 225 218 215 222 231 235 243 252 254 249 242 239 238 233 223 206 199 209 222 225 218 221 218 205 192 185 182 179 176 175 177 179 182 187 193 199 205 209 216 222 223 221 221 222 222 219 214 211 207 206
268 264 262 259 259 262 261 260 260 262 267 270 274 277 278 273 263 257 258 261 263 262 262 263 265 266 264 259 251 239 230 224 220 220 224 223 218 216 223 232 236 243 253 255 249 241 237 235 234 231 223 214 210 222 231 225 224 227 221 207 195 187 181 176 173 170 171 174 180 184 193 198 200 207 219 225 225 225 230 234 233 229 226 224 222
275 273 270 266 263 262 263 264 265 264 264 269 274 276 276 272 263 258 258 261 262 260 258 259 261 262 262 257 246 234 225 221 216 214 220 221 217 218 224 231 235 240 247 248 243 237 235 235 234 233 230 227 222 224 234 234 231 230 231 224 214 204 193 187 182 178 178 179 183 190 199 205 206 209 217 224 221 221 229 236 237 235 236 236 235
276 275 269 265 263 262 264 268 271 272 268 270 277 279 274 267 262 259 260 261 258 257 257 257 258 259 259 254 242 233 226 220 214 212 217 219 215 218 226 233 239 240 239 238 234 230 229 232 235 233 232 231 229 228 233 239 238 234 234 232 229 222 213 205 198 192 190 192 195 201 209 216 222 225 227 232 227 223 228 234 236 232 236 243 242
274 277 275 273 270 265 268 267 271 278 276 272 276 276 270 265 265 262 259 257 254 254 256 253 253 253 252 250 242 235 231 223 216 212 216 218 213 216 229 239 243 240 233 230 227 224 221 226 233 234 231 230 230 230 232 237 240 239 238 235 234 232 228 224 218 211 207 209 217 224 228 231 239 242 242 245 243 239 239 241 241 231 232 241 243
271 275 281 284 283 280 278 274 273 277 276 275 273 269 264 260 262 261 257 254 252 252 249 244 244 245 248 251 247 239 234 229 219 213 217 218 211 213 228 236 235 231 227 223 219 217 216 218 228 234 232 230 231 232 232 234 239 241 242 240 239 237 236 235 235 233 229 229 235 242 245 244 248 249 250 253 252 252 251 250 248 242 239 243 246
276 273 274 278 283 286 284 277 273 272 273 276 273 270 268 263 258 258 256 253 252 249 243 240 238 238 243 247 250 248 239 232 223 215 216 216 211 213 221 226 225 224 224 223 218 215 217 219 225 232 232 229 229 233 235 235 238 241 244 245 244 242 240 239 241 244 245 242 242 245 249 251 251 248 247 252 256 259 260 257 253 252 251 253 256
283 282 280 276 276 280 282 281 278 273 272 272 270 270 269 264 258 254 254 252 250 246 240 237 234 229 229 230 236 248 245 235 228 219 215 215 215 217 222 227 228 226 226 227 227 225 226 228 229 233 233 230 228 231 234 236 236 239 242 245 246 245 242 242 243 246 250 252 253 253 255 257 256 249 245 250 255 258 261 260 258 259 259 259 261
284 280 281 278 274 273 275 279 280 277 274 271 267 263 260 258 254 251 252 250 246 244 238 234 231 224 219 215 216 231 235 229 227 222 216 215 217 220 226 233 235 234 233 234 238 237 234 234 233 235 235 233 232 230 233 235 235 237 239 242 245 247 245 243 244 245 248 252 256 260 260 260 258 252 247 249 254 258 260 260 259 261 263 264 265
293 280 276 276 274 272 272 274 279 277 273 273 268 261 258 257 254 249 249 248 242 240 235 230 227 221 218 213 208 212 212 206 214 220 219 217 219 224 227 234 239 241 242 241 244 245 242 241 239 240 241 241 241 239 237 236 235 237 239 240 242 245 246 246 246 247 247 249 252 257 261 262 261 259 256 255 258 261 260 259 259 259 261 264 267
303 290 279 274 272 272 274 275 275 274 272 274 272 266 260 257 254 248 244 242 237 235 230 223 221 219 216 215 211 202 201 205 204 214 223 222 223 229 233 237 242 247 247 247 249 249 249 249 249 248 246 244 245 246 245 241 238 239 238 236 236 239 242 244 246 249 251 252 253 255 258 261 263 263 263 262 264 265 261 258 260 260 260 263 265
304 297 285 279 278 277 277 275 273 271 270 273 275 273 266 258 253 246 238 234 231 230 225 218 218 218 215 215 213 205 211 220 213 217 232 230 225 230 238 243 246 249 250 251 251 251 253 255 255 253 249 245 244 246 248 246 242 240 238 236 234 235 238 240 244 247 250 253 255 256 257 258 262 264 265 264 265 267 264 260 259 259 261 262 263
298 292 284 279 284 286 285 281 277 274 271 272 273 272 269 260 251 244 237 232 228 226 221 216 217 220 217 217 214 211 215 221 220 226 235 235 231 232 243 254 256 254 254 255 253 251 253 255 253 253 254 252 247 245 246 246 245 243 241 241 241 240 240 241 243 245 248 252 255 257 258 258 260 262 264 264 263 264 263 260 258 259 261 262 262
297 287 285 287 294 295 291 287 282 277 274 273 273 270 269 263 255 247 239 234 228 223 220 216 216 220 220 218 216 214 216 219 221 227 233 235 235 237 249 265 268 266 263 260 258 256 254 253 251 253 253 250 246 243 242 242 243 243 243 244 247 247 246 246 247 248 249 251 253 255 257 259 259 259 261 262 262 261 260 258 257 257 259 260 260
292 283 283 287 290 290 292 291 286 281 275 272 271 269 268 264 257 250 242 236 229 223 219 217 217 219 219 218 217 213 214 217 216 223 233 235 238 242 249 262 271 275 275 269 264 261 257 253 252 253 251 247 246 243 241 240 241 242 243 243 244 246 248 249 252 253 252 251 252 253 255 256 257 256 257 258 259 259 258 257 256 256 257 258 258
286 279 276 277 277 276 280 282 280 279 278 275 272 271 268 262 254 249 244 236 228 222 219 218 218 217 216 218 217 214 214 214 213 219 229 235 242 247 251 260 269 279 283 277 268 263 258 254 253 252 250 249 248 244 242 242 239 238 239 239 239 241 244 248 253 257 257 252 250 251 252 253 254 254 253 253 253 254 255 256 256 256 255 256 256
306 301 295 291 286 280 275 271 270 271 274 274 273 272 270 262 251 246 244 238 229 224 221 221 221 218 218 218 217 215 214 213 215 221 227 233 241 245 248 256 268 280 286 279 271 266 258 252 251 252 252 251 247 243 243 245 243 238 237 239 238 239 242 245 250 256 260 257 250 248 249 251 252 253 253 253 252 251 253 255 256 256 256 254 254
329 323 313 304 297 288 279 273 270 269 272 274 272 270 267 261 251 241 238 236 230 226 225 224 222 219 219 220 219 217 215 214 217 222 226 231 238 243 247 256 266 277 283 278 274 271 260 252 252 255 257 254 248 245 244 247 250 242 236 239 239 238 240 243 246 251 257 260 256 250 250 251 251 253 254 254 253 252 252 253 254 255 256 255 254
339 329 314 302 294 287 278 274 274 273 274 272 271 270 266 260 253 240 233 233 230 228 226 224 222 220 220 222 221 219 216 216 219 223 225 229 235 242 249 256 264 273 277 276 275 272 263 258 255 254 256 255 250 248 248 250 251 245 238 239 238 236 237 239 243 247 252 258 261 257 253 251 250 251 252 254 254 254 254 253 254 254 255 255 255
335 329 312 299 293 289 281 277 278 278 277 274 273 275 274 271 265 248 234 232 231 229 227 224 223 223 223 223 223 221 218 218 220 224 225 228 233 240 246 252 259 266 272 274 275 272 265 262 259 253 253 255 256 255 254 251 249 245 242 239 234 233 235 238 241 246 251 256 260 257 251 248 248 250 252 254 255 256 256 256 256 255 255 255 255
329 324 313 303 299 295 288 283 281 280 282 281 278 280 283 284 283 265 239 234 233 232 229 225 224 227 226 226 226 223 220 220 223 225 226 227 230 236 243 248 251 257 265 272 275 273 269 267 263 257 255 258 260 258 254 251 247 244 243 240 236 234 235 236 239 243 248 251 251 248 244 243 246 251 254 256 257 257 257 257 257 258 257 257 257
325 319 313 304 299 297 293 289 285 281 282 282 278 282 283 278 280 270 245 237 235 232 229 226 225 228 230 229 229 226 223 223 224 226 228 228 229 234 241 244 244 248 256 267 273 271 269 269 265 258 258 260 258 253 250 249 246 244 243 243 241 238 236 235 236 238 242 244 242 242 243 245 250 255 259 261 260 257 256 256 258 259 259 258 257
322 317 312 303 297 298 297 291 286 282 280 276 276 285 283 267 261 258 246 239 237 232 228 225 225 228 231 232 231 229 226 226 227 228 230 230 230 234 239 241 241 245 251 261 268 266 263 267 266 258 257 260 255 247 245 249 251 249 248 248 245 241 238 236 233 232 235 238 240 242 246 249 254 259 262 263 262 258 256 256 257 258 258 258 257
318 315 312 309 304 302 300 294 289 287 286 283 282 287 284 264 254 252 246 240 238 235 231 228 227 229 233 234 233 231 229 229 230 231 233 233 233 235 238 239 239 242 246 252 259 260 258 263 267 259 253 256 254 246 245 250 253 253 252 250 247 242 239 238 236 232 230 232 235 239 244 248 253 259 261 261 258 255 255 255 257 258 258 257 257
317 317 318 319 316 309 304 301 297 292 288 288 288 285 281 267 252 247 245 243 242 239 233 230 230 232 235 234 234 233 233 233 233 235 236 237 237 236 236 237 237 238 241 246 253 257 254 254 260 259 254 255 252 247 250 252 254 260 260 255 250 245 241 240 239 236 232 231 233 236 240 246 252 255 255 254 251 250 252 254 256 258 259 258 257
318 317 317 319 319 313 308 305 302 295 287 286 286 283 280 270 254 247 246 245 245 244 237 232 231 233 235 236 235 235 236 237 237 238 240 240 239 238 236 237 238 238 240 245 250 253 250 245 246 252 257 259 255 250 253 255 257 266 267 260 254 250 247 244 243 241 237 236 237 238 240 245 249 249 246 246 248 251 254 257 259 262 263 262 260
321 316 312 311 313 311 309 306 302 295 289 285 284 282 280 273 263 254 248 244 245 247 244 237 233 233 234 236 237 238 239 241 241 241 242 243 242 239 238 238 239 240 242 246 249 251 251 244 235 238 253 262 259 253 251 252 255 260 264 262 256 251 249 247 245 243 241 241 243 243 243 246 248 248 245 246 249 253 256 258 261 264 265 264 263
327 319 311 307 308 308 308 306 301 295 288 284 283 281 278 276 271 264 257 251 248 247 247 244 239 236 235 235 236 238 240 243 244 243 243 244 243 240 238 238 240 241 243 245 248 250 250 246 235 232 245 259 259 252 248 251 254 255 259 261 258 253 250 249 248 246 244 244 246 247 247 248 250 249 248 248 249 252 254 257 259 260 261 261 262
330 326 318 310 306 305 306 305 302 298 291 287 284 280 276 273 270 266 262 260 256 252 250 249 245 240 239 237 235 236 239 242 245 245 244 244 244 242 239 239 240 242 243 245 246 246 246 246 241 235 239 252 260 254 248 251 256 255 255 258 259 256 252 250 250 249 248 246 245 245 248 252 253 252 251 250 251 251 252 255 257 257 256 257 258
327 327 324 318 310 305 304 303 302 299 294 289 286 281 277 273 269 267 263 260 260 260 259 257 252 246 244 242 239 237 237 240 243 244 243 243 244 243 241 240 240 241 243 244 244 244 245 246 245 241 238 244 257 257 250 251 256 256 255 257 258 258 256 253 251 251 250 249 247 245 247 252 256 255 253 253 253 253 251 252 255 256 256 257 258
322 322 321 319 316 310 304 301 299 294 290 289 287 285 281 275 271 268 264 260 259 260 262 263 261 255 250 245 242 240 239 239 241 243 243 243 244 244 242 242 241 242 243 244 242 242 242 242 243 243 240 240 252 257 252 251 256 257 257 257 256 257 258 258 256 254 253 252 251 249 249 251 254 254 254 254 254 253 252 253 255 257 259 260 261
320 319 317 314 314 312 305 300 296 292 289 287 287 286 283 279 273 267 264 263 261 260 261 262 261 259 254 247 242 241 241 240 240 242 244 246 247 246 244 242 242 242 243 244 242 239 239 241 243 244 243 244 251 255 253 252 254 255 256 258 258 257 256 258 260 261 259 256 254 253 252 253 253 253 254 257 257 255 254 255 258 260 262 263 264
318 316 313 309 309 310 307 303 299 297 294 291 288 287 284 282 278 272 266 262 260 259 259 260 260 259 256 251 245 242 243 243 242 243 246 249 251 251 248 244 241 241 241 241 241 239 238 241 244 245 244 246 250 253 253 252 252 253 256 260 260 258 256 257 258 259 258 256 255 255 255 255 256 256 257 259 260 258 257 257 258 260 262 264 265
315 313 310 306 303 305 307 307 306 305 302 297 292 289 283 279 277 275 271 266 261 258 257 257 258 258 257 254 249 245 244 246 247 247 248 248 250 251 251 248 244 242 241 240 240 240 239 241 243 243 243 246 249 250 252 253 253 255 256 258 259 259 258 255 255 254 254 255 255 256 258 259 260 260 261 262 262 260 259 259 260 261 263 264 266
310 309 308 305 300 300 302 306 308 308 306 303 297 292 286 280 275 272 271 269 266 263 259 257 258 259 259 258 255 250 247 246 248 249 250 250 250 251 253 252 249 245 243 243 243 243 242 243 243 243 243 247 249 251 252 254 255 255 256 257 258 260 258 254 252 252 252 252 254 257 260 261 260 261 262 262 261 261 261 262 263 264 265 267 268
307 305 305 305 301 298 299 302 305 305 305 307 304 297 290 285 280 275 273 272 270 267 264 262 260 260 259 259 260 257 252 249 248 249 251 252 253 253 253 253 252 250 248 247 248 248 246 245 245 245 246 249 251 253 253 254 255 256 256 256 256 256 256 253 250 250 250 251 253 257 260 261 260 259 260 259 260 261 263 265 266 267 268 269 271
309 305 303 303 302 300 299 300 302 301 302 304 305 301 295 290 285 280 276 275 273 270 267 265 264 264 263 261 260 259 258 255 252 251 252 253 252 252 251 251 251 253 253 251 249 249 248 247 247 248 248 250 252 254 254 256 258 258 258 257 254 252 252 250 249 248 250 252 253 256 260 261 260 259 260 262 264 266 268 269 270 270 271 272 273
311 306 302 300 300 300 299 300 300 299 299 298 299 299 297 295 291 285 279 275 273 272 270 268 267 267 267 266 263 261 260 258 256 254 254 255 255 254 253 252 252 253 253 252 250 248 247 247 248 249 249 251 253 255 257 259 260 260 260 260 257 253 251 250 249 249 249 251 252 254 258 259 259 260 263 266 269 271 273 273 273 273 273 273 274
310 307 304 301 299 298 298 299 299 297 297 295 294 295 294 294 293 290 287 282 278 275 273 270 268 266 266 266 265 263 261 259 258 256 256 257 259 258 256 255 254 254 254 254 253 251 248 246 247 250 252 254 257 260 261 262 261 261 262 261 257 252 251 250 248 246 245 246 247 249 252 256 259 262 266 270 273 275 275 275 275 275 275 274 274
308 305 303 300 298 295 294 295 296 296 296 295 294 293 292 292 291 289 290 289 285 282 279 275 271 267 265 264 264 264 264 263 261 259 258 257 258 259 258 255 254 253 253 253 254 254 253 251 251 254 256 258 260 261 261 261 261 261 260 256 250 247 247 248 246 244 244 245 245 247 251 256 261 265 269 273 275 276 276 275 275 275 275 274 274
311 308 304 300 297 294 293 292 294 295 295 297 297 294 292 292 291 289 288 288 287 287 285 282 277 271 267 265 264 264 264 265 265 264 262 259 258 260 261 259 256 254 253 253 253 254 256 256 256 258 259 259 259 259 258 258 257 257 254 250 246 245 247 249 249 248 247 248 249 251 255 259 263 267 271 274 274 274 274 274 274 274 274 273 273
314 312 308 302 297 295 294 292 292 293 294 296 299 298 294 294 293 291 289 288 287 286 287 287 284 280 274 269 267 266 266 266 266 266 265 261 258 259 260 261 261 260 258 256 255 255 256 256 257 259 261 261 261 259 257 255 253 251 249 247 246 245 247 250 251 252 253 253 253 254 258 262 263 265 269 273 273 272 271 272 273 273 273 273 272
316 313 311 306 300 297 295 294 293 292 291 293 297 299 297 294 293 292 291 290 289 287 287 287 287 285 282 276 271 268 268 267 266 264 262 257 254 254 257 260 262 262 261 260 259 258 257 257 257 259 262 263 264 263 259 254 252 250 249 249 249 248 247 249 251 252 253 254 254 254 257 261 263 264 266 269 272 273 273 273 273 273 272 273 273